When you browse on this site, cookies collect data to enhance your experience and personalize the content and advertising you see.
Visit our Privacy Policy to learn more. By continuing to use the site, you agree to this use of cookies and data.
  • In Romania
  • List of Countries
  • For 7 days
  • Water Temperature
  • Satellite Maps
  • Weather Map
  • Weather Widgets
  • user-avatar
    Login

    Hourly Weather Brashov

    Today, 16 July, Tuesday

    Time Temperature Precipitation Wind Pressure Humidity
    00:00 +8°C° 0 mm 0 mps 682 mmHg 92%
    01:00 +8°C° 0 mm 0 mps 682 mmHg 93%
    02:00 +8°C° 0 mm 0 mps 682 mmHg 92%
    03:00 +8°C° 0 mm 0 mps 682 mmHg 92%
    04:00 +7°C° 0 mm 0 mps 682 mmHg 93%
    05:00 +7°C° 0 mm 0 mps 682 mmHg 93%
    06:00 +9°C° 0 mm 0 mps 682 mmHg 90%
    07:00 +11°C° 0 mm 0 mps 683 mmHg 86%
    08:00 +14°C° 0 mm 1 mps 683 mmHg 78%
    09:00 +16°C° 0.1 mm 1 mps 684 mmHg 72%
    10:00 +18°C° 0.1 mm 1 mps 684 mmHg 67%
    11:00 +20°C° 0.1 mm 1 mps 684 mmHg 61%
    12:00 +20°C° 0.4 mm 1 mps 684 mmHg 63%
    13:00 +20°C° 0.4 mm 1 mps 683 mmHg 64%
    14:00 +19°C° 0.4 mm 2 mps 683 mmHg 66%
    15:00 +20°C° 1 mm 1 mps 683 mmHg 69%
    16:00 +19°C° 1 mm 1 mps 683 mmHg 73%
    17:00 +19°C° 1 mm 1 mps 683 mmHg 76%
    18:00 +16°C° 0.2 mm 1 mps 682 mmHg 79%
    19:00 +15°C° 0.2 mm 1 mps 682 mmHg 82%
    20:00 +13°C° 0.2 mm 1 mps 682 mmHg 84%
    21:00 +13°C° 0 mm 1 mps 682 mmHg 85%
    22:00 +12°C° 0 mm 1 mps 682 mmHg 85%
    23:00 +11°C° 0 mm 1 mps 682 mmHg 86%

    Tomorrow, 17 July, Wednesday

    Time Temperature Precipitation Wind Pressure Humidity
    00:00 +11°C° 0 mm 1 mps 682 mmHg 87%
    01:00 +11°C° 0 mm 1 mps 682 mmHg 89%
    02:00 +10°C° 0 mm 1 mps 682 mmHg 90%
    03:00 +10°C° 0 mm 1 mps 682 mmHg 91%
    04:00 +9°C° 0 mm 0 mps 682 mmHg 91%
    05:00 +9°C° 0 mm 0 mps 682 mmHg 92%
    06:00 +11°C° 0 mm 0 mps 682 mmHg 86%
    07:00 +14°C° 0 mm 1 mps 683 mmHg 81%
    08:00 +16°C° 0 mm 1 mps 683 mmHg 75%
    09:00 +19°C° 0 mm 1 mps 683 mmHg 67%
    10:00 +20°C° 0 mm 1 mps 683 mmHg 59%
    11:00 +21°C° 0 mm 2 mps 684 mmHg 51%
    12:00 +21°C° 0 mm 2 mps 683 mmHg 52%
    13:00 +21°C° 0 mm 2 mps 683 mmHg 52%
    14:00 +23°C° 0 mm 2 mps 683 mmHg 52%
    15:00 +21°C° 0.1 mm 2 mps 683 mmHg 54%
    16:00 +21°C° 0.1 mm 2 mps 683 mmHg 56%
    17:00 +21°C° 0.1 mm 3 mps 682 mmHg 59%
    18:00 +19°C° 0 mm 2 mps 682 mmHg 65%
    19:00 +17°C° 0 mm 2 mps 682 mmHg 71%
    20:00 +15°C° 0 mm 2 mps 681 mmHg 77%
    21:00 +14°C° 0 mm 1 mps 682 mmHg 81%
    22:00 +14°C° 0 mm 1 mps 682 mmHg 85%
    23:00 +14°C° 0 mm 1 mps 682 mmHg 88%

    Day after tomorrow, 18 July, Thursday

    Time Temperature Precipitation Wind Pressure Humidity
    00:00 +13°C° 0 mm 1 mps 682 mmHg 89%
    01:00 +12°C° 0 mm 1 mps 682 mmHg 90%
    02:00 +11°C° 0 mm 1 mps 682 mmHg 92%
    03:00 +11°C° 0 mm 1 mps 682 mmHg 91%
    04:00 +11°C° 0 mm 1 mps 682 mmHg 91%
    05:00 +9°C° 0 mm 0 mps 682 mmHg 91%
    06:00 +12°C° 0 mm 1 mps 683 mmHg 85%
    07:00 +14°C° 0 mm 1 mps 683 mmHg 78%
    08:00 +16°C° 0 mm 1 mps 684 mmHg 71%
    09:00 +19°C° 0 mm 1 mps 684 mmHg 66%
    10:00 +20°C° 0 mm 1 mps 685 mmHg 60%
    11:00 +22°C° 0 mm 1 mps 685 mmHg 54%
    12:00 +22°C° 0.2 mm 1 mps 685 mmHg 55%
    13:00 +22°C° 0.2 mm 1 mps 685 mmHg 56%
    14:00 +23°C° 0.2 mm 1 mps 684 mmHg 57%
    15:00 +22°C° 0.4 mm 1 mps 684 mmHg 59%
    16:00 +22°C° 0.4 mm 1 mps 684 mmHg 62%
    17:00 +21°C° 0.4 mm 2 mps 684 mmHg 64%
    18:00 +20°C° 0.1 mm 1 mps 684 mmHg 71%
    19:00 +18°C° 0.1 mm 1 mps 684 mmHg 77%
    20:00 +15°C° 0.1 mm 1 mps 684 mmHg 83%
    21:00 +15°C° 0 mm 1 mps 684 mmHg 84%
    22:00 +14°C° 0 mm 1 mps 684 mmHg 85%
    23:00 +13°C° 0 mm 1 mps 684 mmHg 85%

    19 July, Friday

    Time Temperature Precipitation Wind Pressure Humidity
    00:00 +13°C° 0.1 mm 1 mps 684 mmHg 85%
    01:00 +13°C° 0.1 mm 1 mps 684 mmHg 86%
    02:00 +13°C° 0.1 mm 1 mps 684 mmHg 86%
    03:00 +13°C° 0 mm 1 mps 684 mmHg 86%
    04:00 +12°C° 0 mm 1 mps 684 mmHg 87%
    05:00 +12°C° 0 mm 1 mps 684 mmHg 88%
    06:00 +14°C° 0.1 mm 1 mps 685 mmHg 83%
    07:00 +15°C° 0.1 mm 0 mps 685 mmHg 78%
    08:00 +18°C° 0.1 mm 0 mps 686 mmHg 73%
    09:00 +19°C° 0.4 mm 0 mps 686 mmHg 70%
    10:00 +20°C° 0.4 mm 0 mps 686 mmHg 66%
    11:00 +24°C° 0.4 mm 1 mps 687 mmHg 62%
    12:00 +24°C° 0.6 mm 1 mps 687 mmHg 61%
    13:00 +24°C° 0.6 mm 1 mps 686 mmHg 59%
    14:00 +24°C° 0.6 mm 1 mps 686 mmHg 58%
    15:00 +24°C° 0.6 mm 1 mps 686 mmHg 62%
    16:00 +23°C° 0.6 mm 1 mps 686 mmHg 67%
    17:00 +22°C° 0.6 mm 1 mps 686 mmHg 71%
    18:00 +21°C° 0.4 mm 1 mps 686 mmHg 75%
    19:00 +19°C° 0.4 mm 1 mps 685 mmHg 79%
    20:00 +16°C° 0.4 mm 1 mps 685 mmHg 83%
    21:00 +15°C° 0.2 mm 1 mps 686 mmHg 84%
    22:00 +15°C° 0.2 mm 1 mps 686 mmHg 86%
    23:00 +14°C° 0.2 mm 1 mps 686 mmHg 88%

    20 July, Saturday

    Time Temperature Precipitation Wind Pressure Humidity
    00:00 +14°C° 0 mm 1 mps 686 mmHg 88%
    01:00 +14°C° 0 mm 1 mps 686 mmHg 89%
    02:00 +14°C° 0 mm 1 mps 686 mmHg 89%
    03:00 +14°C° 0 mm 1 mps 686 mmHg 90%
    04:00 +13°C° 0 mm 1 mps 686 mmHg 90%
    05:00 +13°C° 0 mm 1 mps 686 mmHg 90%
    06:00 +15°C° 0.1 mm 1 mps 686 mmHg 87%
    07:00 +18°C° 0.1 mm 1 mps 687 mmHg 83%
    08:00 +18°C° 0.1 mm 0 mps 687 mmHg 80%
    09:00 +21°C° 0.7 mm 1 mps 688 mmHg 75%
    10:00 +22°C° 0.7 mm 1 mps 688 mmHg 71%
    11:00 +24°C° 0.7 mm 1 mps 688 mmHg 67%
    12:00 +23°C° 0.9 mm 2 mps 688 mmHg 71%
    13:00 +21°C° 0.9 mm 2 mps 688 mmHg 74%
    14:00 +20°C° 0.9 mm 2 mps 687 mmHg 78%
    15:00 +20°C° 0.3 mm 2 mps 687 mmHg 77%
    16:00 +21°C° 0.3 mm 2 mps 687 mmHg 76%
    17:00 +22°C° 0.3 mm 1 mps 687 mmHg 75%
    18:00 +21°C° 0.3 mm 1 mps 687 mmHg 78%
    19:00 +19°C° 0.3 mm 1 mps 687 mmHg 81%
    20:00 +18°C° 0.3 mm 1 mps 687 mmHg 83%
    21:00 +16°C° 0 mm 1 mps 687 mmHg 84%
    22:00 +16°C° 0 mm 1 mps 687 mmHg 85%
    23:00 +15°C° 0 mm 1 mps 687 mmHg 86%

    21 July, Sunday

    Time Temperature Precipitation Wind Pressure Humidity
    00:00 +15°C° 0 mm 1 mps 687 mmHg 86%
    01:00 +15°C° 0 mm 1 mps 687 mmHg 86%
    02:00 +14°C° 0 mm 1 mps 687 mmHg 85%
    03:00 +14°C° 0 mm 1 mps 687 mmHg 86%
    04:00 +13°C° 0 mm 0 mps 687 mmHg 86%
    05:00 +13°C° 0 mm 0 mps 687 mmHg 86%
    06:00 +15°C° 0 mm 0 mps 688 mmHg 80%
    07:00 +17°C° 0 mm 0 mps 688 mmHg 74%
    08:00 +19°C° 0 mm 0 mps 689 mmHg 68%
    09:00 +21°C° 0.3 mm 0 mps 689 mmHg 66%
    10:00 +22°C° 0.3 mm 0 mps 689 mmHg 65%
    11:00 +23°C° 0.3 mm 0 mps 690 mmHg 63%
    12:00 +26°C° 1.1 mm 1 mps 690 mmHg 62%
    13:00 +26°C° 1.1 mm 1 mps 690 mmHg 62%
    14:00 +26°C° 1.1 mm 1 mps 689 mmHg 61%
    15:00 +26°C° 1 mm 1 mps 689 mmHg 63%
    16:00 +26°C° 1 mm 1 mps 689 mmHg 65%
    17:00 +25°C° 1 mm 1 mps 689 mmHg 67%
    18:00 +23°C° 0.1 mm 1 mps 689 mmHg 72%
    19:00 +21°C° 0.1 mm 1 mps 689 mmHg 77%
    20:00 +19°C° 0.1 mm 1 mps 688 mmHg 82%
    21:00 +19°C° 0 mm 1 mps 688 mmHg 82%
    22:00 +18°C° 0 mm 1 mps 688 mmHg 82%
    23:00 +16°C° 0 mm 1 mps 689 mmHg 82%
    Show more